MYTBM EDNY-LIML

Flight info

Callsign MYTBM
Flight time 0h 51m
Altitude 21000
Route BEMKI L607 XEBIX Y740 NATAG/N0284F190 M738 LORLO Y740 ATPED M984 LUSIL
Aircraft TBM8/L-SDFGRWY/S

Departure

Time 2026-04-22 05:30
Airport Bodensee Airport Friedrichshafen (EDNY)

Arrival

Time 2026-04-22 06:22
Airport Milano Linate Airport (LIML)
Time Latitude Longitude Altitude Speed Heading
2026-04-22 05:15 47.66871 9.51290 1354 ft 0 kts 141°
2026-04-22 05:27 47.66869 9.51297 1354 ft 2 kts 93°
2026-04-22 05:27 47.66882 9.51294 1354 ft 6 kts 274°
2026-04-22 05:27 47.66888 9.51220 1355 ft 8 kts 329°
2026-04-22 05:27 47.66939 9.51165 1350 ft 12 kts 283°
2026-04-22 05:28 47.66894 9.51013 1349 ft 20 kts 243°
2026-04-22 05:28 47.66816 9.50810 1345 ft 23 kts 240°
2026-04-22 05:28 47.66762 9.50651 1346 ft 12 kts 274°
2026-04-22 05:28 47.66802 9.50608 1348 ft 5 kts 10°
2026-04-22 05:29 47.66840 9.50633 1346 ft 8 kts 27°
2026-04-22 05:29 47.66909 9.50693 1344 ft 14 kts 30°
2026-04-22 05:29 47.66970 9.50721 1345 ft 5 kts 43°
2026-04-22 05:29 47.66975 9.50733 1349 ft 8 kts 62°
2026-04-22 05:30 47.67086 9.51026 1354 ft 58 kts 60°
2026-04-22 05:30 47.67356 9.51735 1388 ft 96 kts 57°
2026-04-22 05:30 47.67710 9.52666 1643 ft 111 kts 58°
2026-04-22 05:30 47.68111 9.53693 2012 ft 121 kts 58°
2026-04-22 05:31 47.68545 9.54772 2543 ft 120 kts 59°
2026-04-22 05:31 47.68947 9.55802 3141 ft 114 kts 62°
2026-04-22 05:31 47.69337 9.56815 3674 ft 113 kts 64°
2026-04-22 05:31 47.69738 9.57835 4135 ft 115 kts 63°
2026-04-22 05:32 47.70149 9.58862 4601 ft 118 kts 64°
2026-04-22 05:32 47.70556 9.59940 5054 ft 120 kts 64°
2026-04-22 05:32 47.70972 9.61032 5513 ft 123 kts 64°
2026-04-22 05:32 47.71315 9.62179 5924 ft 124 kts 83°
2026-04-22 05:33 47.71413 9.63439 6404 ft 123 kts 85°
2026-04-22 05:33 47.71447 9.64726 6822 ft 126 kts 87°
2026-04-22 05:33 47.71496 9.66024 7266 ft 127 kts 86°
2026-04-22 05:33 47.71553 9.67340 7709 ft 127 kts 86°
2026-04-22 05:34 47.71616 9.68645 8139 ft 128 kts 85°
2026-04-22 05:34 47.71680 9.69997 8527 ft 131 kts 85°
2026-04-22 05:34 47.71746 9.71356 8895 ft 138 kts 85°
2026-04-22 05:34 47.71808 9.72814 9291 ft 142 kts 85°
2026-04-22 05:35 47.71879 9.74275 9731 ft 143 kts 84°
2026-04-22 05:35 47.71947 9.75746 10174 ft 142 kts 83°
2026-04-22 05:35 47.72022 9.77234 10525 ft 146 kts 83°
2026-04-22 05:35 47.72092 9.78741 10923 ft 147 kts 84°
2026-04-22 05:36 47.72164 9.80282 11305 ft 149 kts 83°
2026-04-22 05:36 47.72083 9.81807 11708 ft 154 kts 111°
2026-04-22 05:36 47.71501 9.83170 12104 ft 156 kts 115°
2026-04-22 05:36 47.70958 9.84558 12476 ft 158 kts 114°
2026-04-22 05:37 47.70391 9.85977 12861 ft 160 kts 115°
2026-04-22 05:37 47.69816 9.87403 13252 ft 162 kts 115°
2026-04-22 05:37 47.69235 9.88843 13638 ft 163 kts 115°
2026-04-22 05:37 47.68647 9.90295 14016 ft 165 kts 115°
2026-04-22 05:38 47.68057 9.91760 14370 ft 166 kts 115°
2026-04-22 05:38 47.67460 9.93236 14725 ft 166 kts 115°
2026-04-22 05:38 47.66865 9.94713 15084 ft 167 kts 114°
2026-04-22 05:38 47.66389 9.96248 15433 ft 166 kts 108°
2026-04-22 05:39 47.65912 9.97815 15779 ft 167 kts 109°
2026-04-22 05:39 47.65427 9.99391 16130 ft 168 kts 109°
2026-04-22 05:39 47.64945 10.00978 16484 ft 169 kts 109°
2026-04-22 05:39 47.64464 10.02573 16828 ft 170 kts 109°
2026-04-22 05:40 47.63977 10.04176 17171 ft 171 kts 109°
2026-04-22 05:40 47.63490 10.05784 17528 ft 171 kts 108°
2026-04-22 05:40 47.62999 10.07402 17875 ft 173 kts 109°
2026-04-22 05:40 47.62506 10.09028 18226 ft 173 kts 109°
2026-04-22 05:41 47.62010 10.10665 18559 ft 175 kts 108°
2026-04-22 05:41 47.61513 10.12298 18840 ft 177 kts 108°
2026-04-22 05:41 47.61006 10.13962 19157 ft 177 kts 108°
2026-04-22 05:41 47.60500 10.15623 19466 ft 177 kts 108°
2026-04-22 05:42 47.59994 10.17289 19769 ft 177 kts 108°
2026-04-22 05:42 47.59486 10.18956 20066 ft 178 kts 108°
2026-04-22 05:42 47.58975 10.20627 20362 ft 178 kts 108°
2026-04-22 05:42 47.58459 10.22326 20630 ft 181 kts 108°
2026-04-22 05:43 47.57937 10.24027 20943 ft 181 kts 109°
2026-04-22 05:43 47.57421 10.25718 21167 ft 187 kts 109°
2026-04-22 05:43 47.56856 10.27556 21182 ft 204 kts 109°
2026-04-22 05:43 47.56241 10.29539 21184 ft 219 kts 111°
2026-04-22 05:44 47.55242 10.31349 21185 ft 240 kts 139°
2026-04-22 05:44 47.53841 10.32835 21185 ft 253 kts 141°
2026-04-22 05:44 47.52392 10.34415 21179 ft 264 kts 140°
2026-04-22 05:44 47.50896 10.36064 21179 ft 273 kts 140°
2026-04-22 05:45 47.49364 10.37739 21178 ft 280 kts 141°
2026-04-22 05:45 47.47775 10.39471 21190 ft 286 kts 141°
2026-04-22 05:45 47.46159 10.41237 21187 ft 291 kts 141°
2026-04-22 05:45 47.44516 10.43032 21187 ft 295 kts 141°
2026-04-22 05:46 47.42856 10.44843 21188 ft 298 kts 141°
2026-04-22 05:46 47.41174 10.46666 21188 ft 301 kts 142°
2026-04-22 05:46 47.39264 10.47973 21191 ft 308 kts 164°
2026-04-22 05:46 47.37148 10.48389 21188 ft 311 kts 173°
2026-04-22 05:47 47.34987 10.48682 21189 ft 312 kts 173°
2026-04-22 05:47 47.32814 10.48985 21189 ft 313 kts 173°
2026-04-22 05:47 47.30642 10.49298 21185 ft 314 kts 173°
2026-04-22 05:47 47.28466 10.49611 21187 ft 315 kts 174°
2026-04-22 05:48 47.26280 10.49922 21185 ft 316 kts 174°
2026-04-22 05:48 47.24082 10.50232 21184 ft 317 kts 174°
2026-04-22 05:48 47.21881 10.50546 21172 ft 318 kts 174°
2026-04-22 05:48 47.19681 10.50861 21169 ft 318 kts 174°
2026-04-22 05:49 47.17476 10.51173 21171 ft 318 kts 174°
2026-04-22 05:49 47.15275 10.51486 21168 ft 318 kts 174°
2026-04-22 05:49 47.13075 10.51800 21161 ft 318 kts 174°
2026-04-22 05:49 47.10892 10.52107 21162 ft 318 kts 174°
2026-04-22 05:50 47.08679 10.52424 21161 ft 320 kts 175°
2026-04-22 05:50 47.06462 10.52737 21150 ft 320 kts 175°
2026-04-22 05:50 47.04294 10.53444 21149 ft 319 kts 162°
2026-04-22 05:50 47.02181 10.54459 21149 ft 319 kts 162°
2026-04-22 05:51 47.00076 10.55417 21147 ft 320 kts 163°
2026-04-22 05:51 46.97948 10.56356 21137 ft 320 kts 163°
2026-04-22 05:51 46.95810 10.57319 21136 ft 321 kts 163°
2026-04-22 05:51 46.93680 10.58291 21137 ft 321 kts 162°
2026-04-22 05:52 46.91540 10.59259 21139 ft 321 kts 163°
2026-04-22 05:52 46.89402 10.60218 21129 ft 322 kts 163°
2026-04-22 05:52 46.87260 10.61189 21133 ft 323 kts 164°
2026-04-22 05:52 46.85106 10.62158 21134 ft 323 kts 165°
2026-04-22 05:53 46.82955 10.63126 21134 ft 323 kts 164°
2026-04-22 05:53 46.80799 10.64096 21150 ft 325 kts 164°
2026-04-22 05:53 46.78637 10.65064 21132 ft 325 kts 163°
2026-04-22 05:53 46.76478 10.66034 21134 ft 325 kts 163°
2026-04-22 05:54 46.74313 10.67002 21131 ft 325 kts 164°
2026-04-22 05:54 46.72088 10.67396 21127 ft 321 kts 185°
2026-04-22 05:54 46.69929 10.66781 21124 ft 319 kts 200°
2026-04-22 05:54 46.67797 10.65823 21110 ft 320 kts 201°
2026-04-22 05:55 46.65665 10.64884 21108 ft 320 kts 201°
2026-04-22 05:55 46.63534 10.63949 21102 ft 319 kts 201°
2026-04-22 05:55 46.61411 10.63020 21103 ft 319 kts 202°
2026-04-22 05:55 46.59283 10.62082 21106 ft 320 kts 202°
2026-04-22 05:56 46.57150 10.61145 21105 ft 320 kts 201°
2026-04-22 05:56 46.55012 10.60211 21101 ft 320 kts 201°
2026-04-22 05:56 46.52882 10.59281 21095 ft 319 kts 201°
2026-04-22 05:56 46.50759 10.58350 21099 ft 319 kts 201°
2026-04-22 05:57 46.48637 10.57421 21098 ft 318 kts 202°
2026-04-22 05:57 46.46547 10.56513 21101 ft 317 kts 203°
2026-04-22 05:57 46.44439 10.55593 21101 ft 316 kts 203°
2026-04-22 05:57 46.42339 10.54677 21100 ft 315 kts 203°
2026-04-22 05:58 46.40238 10.53755 21101 ft 316 kts 203°
2026-04-22 05:58 46.38120 10.52832 21100 ft 319 kts 203°
2026-04-22 05:58 46.35991 10.51913 21101 ft 319 kts 203°
2026-04-22 05:58 46.34583 10.51303 21103 ft 319 kts 203°
2026-04-22 05:59 46.32456 10.50365 21102 ft 320 kts 203°
2026-04-22 05:59 46.30312 10.49435 21099 ft 320 kts 203°
2026-04-22 05:59 46.28181 10.48525 21101 ft 318 kts 203°
2026-04-22 05:59 46.26064 10.47606 21098 ft 317 kts 203°
2026-04-22 06:00 46.23958 10.46692 21104 ft 316 kts 203°
2026-04-22 06:00 46.21854 10.45781 21104 ft 316 kts 203°
2026-04-22 06:00 46.19745 10.44871 21106 ft 317 kts 203°
2026-04-22 06:00 46.17643 10.43934 21116 ft 313 kts 206°
2026-04-22 06:01 46.15811 10.42381 21113 ft 300 kts 228°
2026-04-22 06:01 46.14473 10.40194 21114 ft 290 kts 245°
2026-04-22 06:01 46.13540 10.37629 21112 ft 288 kts 251°
2026-04-22 06:01 46.12628 10.35052 21109 ft 289 kts 250°
2026-04-22 06:02 46.11710 10.32471 21112 ft 290 kts 250°
2026-04-22 06:02 46.10797 10.29877 21109 ft 289 kts 250°
2026-04-22 06:02 46.09885 10.27301 21110 ft 286 kts 251°
2026-04-22 06:02 46.08994 10.24805 21110 ft 281 kts 251°
2026-04-22 06:03 46.08108 10.22313 21107 ft 278 kts 251°
2026-04-22 06:03 46.07233 10.19843 21115 ft 276 kts 251°
2026-04-22 06:03 46.06362 10.17380 21109 ft 277 kts 251°
2026-04-22 06:03 46.05480 10.14908 21106 ft 278 kts 251°
2026-04-22 06:04 46.04556 10.12458 21109 ft 282 kts 244°
2026-04-22 06:04 46.03068 10.10498 21108 ft 299 kts 222°
2026-04-22 06:04 46.01302 10.08946 21103 ft 300 kts 220°
2026-04-22 06:04 45.99526 10.07388 21111 ft 299 kts 221°
2026-04-22 06:05 45.97755 10.05807 21117 ft 300 kts 221°
2026-04-22 06:05 45.95978 10.04221 21109 ft 301 kts 221°
2026-04-22 06:05 45.94193 10.02635 21116 ft 302 kts 220°
2026-04-22 06:05 45.92397 10.01058 21100 ft 301 kts 221°
2026-04-22 06:06 45.90629 9.99489 21115 ft 297 kts 221°
2026-04-22 06:06 45.88872 9.97919 21132 ft 297 kts 222°
2026-04-22 06:06 45.87104 9.96354 21129 ft 299 kts 221°
2026-04-22 06:06 45.85329 9.94791 21131 ft 300 kts 221°
2026-04-22 06:07 45.83535 9.93196 20869 ft 309 kts 221°
2026-04-22 06:07 45.81675 9.91533 20407 ft 320 kts 220°
2026-04-22 06:07 45.79754 9.89827 19961 ft 329 kts 220°
2026-04-22 06:07 45.77778 9.88089 19514 ft 336 kts 219°
2026-04-22 06:08 45.75806 9.86335 19082 ft 339 kts 219°
2026-04-22 06:08 45.73809 9.84537 18623 ft 337 kts 219°
2026-04-22 06:08 45.71861 9.82828 18140 ft 317 kts 219°
2026-04-22 06:08 45.70060 9.81287 17644 ft 286 kts 218°
2026-04-22 06:09 45.68410 9.79916 17146 ft 263 kts 219°
2026-04-22 06:09 45.66880 9.78588 16660 ft 257 kts 219°
2026-04-22 06:09 45.65318 9.77201 16191 ft 273 kts 219°
2026-04-22 06:09 45.63757 9.75635 15809 ft 283 kts 223°
2026-04-22 06:10 45.62132 9.73973 15414 ft 292 kts 221°
2026-04-22 06:10 45.60445 9.72310 15011 ft 297 kts 220°
2026-04-22 06:10 45.58737 9.70622 14595 ft 300 kts 220°
2026-04-22 06:10 45.57022 9.68907 14180 ft 302 kts 220°
2026-04-22 06:11 45.55303 9.67190 13619 ft 301 kts 219°
2026-04-22 06:11 45.53594 9.65493 13128 ft 298 kts 219°
2026-04-22 06:11 45.51892 9.63819 12671 ft 296 kts 219°
2026-04-22 06:11 45.50206 9.62147 12197 ft 294 kts 219°
2026-04-22 06:12 45.48534 9.60484 11728 ft 292 kts 218°
2026-04-22 06:12 45.46869 9.58842 11270 ft 290 kts 218°
2026-04-22 06:12 45.45206 9.57198 10818 ft 289 kts 218°
2026-04-22 06:12 45.43560 9.55561 10375 ft 288 kts 218°
2026-04-22 06:13 45.41915 9.53935 9935 ft 287 kts 218°
2026-04-22 06:13 45.40279 9.52317 9455 ft 286 kts 217°
2026-04-22 06:13 45.38675 9.50726 8982 ft 283 kts 217°
2026-04-22 06:13 45.37053 9.49137 8513 ft 282 kts 216°
2026-04-22 06:14 45.35450 9.47560 8105 ft 277 kts 215°
2026-04-22 06:14 45.33884 9.46019 7797 ft 270 kts 214°
2026-04-22 06:14 45.32349 9.44524 7493 ft 264 kts 213°
2026-04-22 06:14 45.30682 9.43552 7161 ft 258 kts 188°
2026-04-22 06:15 45.28910 9.43515 6848 ft 252 kts 173°
2026-04-22 06:15 45.27177 9.43726 6560 ft 249 kts 173°
2026-04-22 06:15 45.25513 9.43892 6255 ft 236 kts 174°
2026-04-22 06:15 45.23903 9.43946 5967 ft 230 kts 187°
2026-04-22 06:16 45.22461 9.43121 5954 ft 219 kts 210°
2026-04-22 06:16 45.21390 9.41636 5730 ft 220 kts 236°
2026-04-22 06:16 45.20906 9.39549 5322 ft 227 kts 265°
2026-04-22 06:16 45.21131 9.37354 4999 ft 226 kts 290°
2026-04-22 06:17 45.21656 9.35251 4640 ft 226 kts 291°
2026-04-22 06:17 45.22162 9.33147 4331 ft 224 kts 290°
2026-04-22 06:17 45.22913 9.31262 4083 ft 219 kts 318°
2026-04-22 06:17 45.24147 9.30071 3842 ft 212 kts 343°
2026-04-22 06:18 45.25564 9.29737 3619 ft 204 kts
2026-04-22 06:18 45.26979 9.29601 3415 ft 204 kts
2026-04-22 06:18 45.28393 9.29431 3224 ft 210 kts
2026-04-22 06:18 45.29871 9.29289 3030 ft 215 kts
2026-04-22 06:19 45.31363 9.29132 2832 ft 215 kts
2026-04-22 06:19 45.32856 9.28943 2544 ft 215 kts
2026-04-22 06:19 45.34342 9.28810 2251 ft 210 kts
2026-04-22 06:19 45.35783 9.28648 1964 ft 206 kts
2026-04-22 06:20 45.37175 9.28489 1696 ft 187 kts
2026-04-22 06:20 45.38345 9.28374 1466 ft 160 kts
2026-04-22 06:20 45.39434 9.28244 1231 ft 153 kts
2026-04-22 06:20 45.40441 9.28147 1005 ft 132 kts
2026-04-22 06:21 45.41296 9.28050 833 ft 119 kts 359°
2026-04-22 06:21 45.42097 9.27962 677 ft 114 kts
2026-04-22 06:21 45.42889 9.27885 525 ft 115 kts
2026-04-22 06:21 45.43684 9.27794 372 ft 113 kts
2026-04-22 06:22 45.44388 9.27711 359 ft 90 kts 359°
2026-04-22 06:22 45.44860 9.27661 360 ft 31 kts 341°
2026-04-22 06:22 45.44927 9.27546 356 ft 13 kts 307°
2026-04-22 06:22 45.44985 9.27439 357 ft 14 kts 306°
2026-04-22 06:23 45.45046 9.27309 355 ft 18 kts 300°
2026-04-22 06:23 45.45098 9.27153 358 ft 15 kts 292°
2026-04-22 06:23 45.45134 9.27025 358 ft 13 kts 292°
2026-04-22 06:23 45.45165 9.26897 359 ft 15 kts 277°
2026-04-22 06:24 45.45219 9.26550 355 ft 18 kts 293°
2026-04-22 06:24 45.45273 9.26414 355 ft 14 kts 308°
2026-04-22 06:24 45.45339 9.26339 357 ft 12 kts 339°
2026-04-22 06:25 45.45418 9.26285 355 ft 13 kts 334°
2026-04-22 06:25 45.45490 9.26245 356 ft 8 kts 21°
2026-04-22 06:25 45.45511 9.26290 355 ft 4 kts 65°
2026-04-22 06:25 45.45516 9.26303 361 ft 0 kts 65°